Shawnee Mission, KS

8:24 AM CST on February 07, 2016 (GMT -0600)
Johnson County Executive

Weather History for KOJC - October, 2013

Change the Weather History Date:

Saturday, October 12, 2013

  Actual Average Record
Temperature  
Mean Temperature 59 °F 58 °F  
Max Temperature 70 °F 68 °F 89 °F (1975)
Min Temperature 47 °F 49 °F 33 °F (1977)
Degree Days  
Heating Degree Days 6 7  
Month to date heating degree days 47 73  
Since 1 July heating degree days 74 122  
Cooling Degree Days 0 1  
Month to date cooling degree days 31 19  
Year to date cooling degree days 1360 1340  
Growing Degree Days 10 (Base 50)    
Moisture  
Dew Point 43 °F    
Average Humidity 59    
Maximum Humidity 90    
Minimum Humidity 28    
Precipitation  
Precipitation 0.00 in 0.12 in 1.53 in (1969)
Month to date precipitation 0.69 1.48  
Year to date precipitation 30.19 33.95  
Sea Level Pressure  
Sea Level Pressure 30.08 in    
Wind  
Wind Speed 7 mph (North)    
Max Wind Speed 16 mph    
Max Gust Speed 21 mph    
Visibility 10 miles    
Events      
T = Trace of Precipitation, MM = Missing Value Source: NWS Daily Summary

Daily Weather History Graph

Daily Weather History Graph

Search for Another Location

Airport or City:

Trip Planner

Search our weather history database for the weather conditions in past years. The results will help you decide how hot, cold, wet, or windy it might be!

Date:

Astronomy

Oct. 12, 2013 Rise Set
Actual Time 7:25 AM CDT 6:44 PM CDT
Civil Twilight 6:58 AM CDT 7:11 PM CDT
Nautical Twilight 6:27 AM CDT 7:42 PM CDT
Astronomical Twilight 5:57 AM CDT 8:12 PM CDT
Moon 2:51 PM CDT (10/12) 12:33 AM CDT (10/12)
Length of Visible Light 12h 12m
Length of Day
11h 18m
First Quarter, 59% of the Moon is Illuminated
Oct 12
First Quarter
Oct 18
Full
Oct 26
Last Quarter
Nov 3
New
Nov 9
First Quarter

Hourly Weather History & Observations

Time (CDT) Temp. Dew Point Humidity Pressure Visibility Wind Dir Wind Speed Gust Speed Precip Events Conditions
12:53 AM 61.0 °F 57.0 °F 87% 29.88 in 10.0 mi SSW 5.8 mph - N/A   Mostly Cloudy
1:02 AM 60.8 °F 57.2 °F 88% 29.91 in 10.0 mi SW 4.6 mph - N/A   Mostly Cloudy
1:35 AM 60.8 °F 57.2 °F 88% 29.90 in 10.0 mi WNW 4.6 mph - N/A   Scattered Clouds
1:53 AM 61.0 °F 55.0 °F 81% 29.89 in 10.0 mi NW 13.8 mph - N/A   Clear
2:53 AM 57.9 °F 48.0 °F 70% 29.89 in 10.0 mi North 11.5 mph - N/A   Clear
3:53 AM 55.9 °F 46.0 °F 69% 29.93 in 10.0 mi North 11.5 mph - N/A   Clear
4:53 AM 54.0 °F 44.1 °F 69% 29.96 in 10.0 mi North 8.1 mph - N/A   Clear
5:53 AM 53.1 °F 43.0 °F 69% 30.00 in 10.0 mi North 6.9 mph - N/A   Clear
6:53 AM 52.0 °F 43.0 °F 71% 30.03 in 10.0 mi North 4.6 mph - N/A   Clear
7:53 AM 51.1 °F 43.0 °F 74% 30.07 in 10.0 mi Calm Calm - N/A   Clear
8:53 AM 55.0 °F 44.1 °F 67% 30.10 in 10.0 mi North 8.1 mph - N/A   Clear
9:53 AM 57.9 °F 43.0 °F 58% 30.12 in 10.0 mi North 12.7 mph - N/A   Clear
10:53 AM 60.1 °F 41.0 °F 49% 30.12 in 10.0 mi North 11.5 mph - N/A   Clear
11:53 AM 63.0 °F 39.9 °F 43% 30.14 in 10.0 mi North 12.7 mph - N/A   Clear
12:53 PM 64.9 °F 39.9 °F 40% 30.15 in 10.0 mi North 12.7 mph - N/A   Clear
1:53 PM 66.9 °F 39.0 °F 36% 30.13 in 10.0 mi North 11.5 mph 19.6 mph N/A   Clear
2:53 PM 69.1 °F 37.9 °F 32% 30.14 in 10.0 mi NNW 11.5 mph - N/A   Clear
3:53 PM 69.1 °F 37.0 °F 31% 30.13 in 10.0 mi North 11.5 mph - N/A   Clear
4:53 PM 69.1 °F 35.1 °F 29% 30.13 in 10.0 mi North 10.4 mph - N/A   Clear
5:53 PM 66.9 °F 37.9 °F 34% 30.13 in 10.0 mi North 6.9 mph - N/A   Clear
6:53 PM 62.1 °F 39.0 °F 43% 30.15 in 10.0 mi North 3.5 mph - N/A   Clear
7:53 PM 62.1 °F 37.9 °F 41% 30.17 in 10.0 mi North 3.5 mph - N/A   Clear
8:53 PM 57.9 °F 39.0 °F 49% 30.19 in 10.0 mi Calm Calm - N/A   Clear
9:53 PM 57.9 °F 37.9 °F 47% 30.22 in 10.0 mi Calm Calm - N/A   Clear
10:53 PM 50.0 °F 39.9 °F 68% 30.25 in 10.0 mi Calm Calm - N/A   Clear
11:53 PM 55.0 °F 37.9 °F 53% 30.25 in 10.0 mi NE 3.5 mph - N/A   Clear